Weather History for Chicopee, MA

Change the Weather History Date:

Thursday, February 7, 2013

  Actual Average Record
Temperature  
Mean Temperature 19 °F -  
Max Temperature 31 °F 34 °F 50 °F (2005)
Min Temperature 7 °F 17 °F -8 °F (2014)
Degree Days  
Heating Degree Days 46    
Moisture  
Dew Point 5 °F    
Average Humidity 50    
Maximum Humidity 87    
Minimum Humidity 31    
Precipitation  
Precipitation 0.00 in - - ()
Sea Level Pressure  
Sea Level Pressure 30.45 in    
Wind  
Wind Speed 2 mph (East)    
Max Wind Speed 6 mph    
Max Gust Speed -    
Visibility 10 miles    
Events      
Averages and records for this station are not official NWS values.
T = Trace of Precipitation, MM = Missing Value Source: NWS Daily Summary

Daily Weather History Graph

Daily Weather History Graph

Search for Another Location

Airport:

Trip Planner

Search our weather history database for the weather conditions in past years. The results will help you decide how hot, cold, wet, or windy it might be!

Date:

Astronomy

Feb. 07, 2013 Rise Set
Actual Time 6:56 AM EST 5:12 PM EST
Civil Twilight 6:27 AM EST 5:42 PM EST
Nautical Twilight 5:54 AM EST 6:15 PM EST
Astronomical Twilight 5:21 AM EST 6:47 PM EST
Moon 4:35 AM EST (2/7) 2:32 PM EST (2/7)
Length of Visible Light 11h 14m
Length of Day
10h 16m
Waning Crescent, 9% of the Moon is Illuminated
Feb 7
Waning Crescent
Feb 10
New
Feb 17
First Quarter
Feb 25
Full
Mar 4
Last Quarter

Hourly Weather History & Observations

Time (EST) Temp. Windchill Dew Point Humidity Pressure Visibility Wind Dir Wind Speed Gust Speed Precip Events Conditions
12:55 AM 19.6 °F 11.7 °F 5.0 °F 53% 30.34 in 10.0 mi WNW 5.8 mph - N/A   Clear
1:55 AM 18.0 °F 12.7 °F 5.4 °F 58% 30.34 in 10.0 mi North 3.5 mph - N/A   Clear
2:55 AM 16.9 °F - 5.7 °F 62% 30.36 in 10.0 mi Calm Calm - N/A   Clear
3:55 AM 12.7 °F - 6.1 °F 75% 30.40 in 10.0 mi Calm Calm - N/A   Clear
4:55 AM 9.3 °F 2.8 °F 5.4 °F 84% 30.41 in 10.0 mi ENE 3.5 mph - N/A   Clear
5:55 AM 10.9 °F - 5.9 °F 80% 30.43 in 10.0 mi Calm Calm - N/A   Clear
6:55 AM 7.9 °F - 4.8 °F 87% 30.45 in 10.0 mi Calm Calm - N/A   Clear
7:55 AM 15.6 °F - 9.5 °F 77% 30.51 in 10.0 mi Calm Calm - N/A   Overcast
8:55 AM 18.9 °F - 6.8 °F 59% 30.52 in 10.0 mi Calm Calm - N/A   Clear
9:55 AM 24.1 °F 19.7 °F 2.8 °F 40% 30.53 in 10.0 mi Variable 3.5 mph - N/A   Clear
10:55 AM 24.6 °F - 1.9 °F 38% 30.54 in 10.0 mi Calm Calm - N/A   Overcast
11:55 AM 27.1 °F 20.7 °F 0.7 °F 32% 30.50 in 10.0 mi North 5.8 mph - N/A   Clear
12:55 PM 29.3 °F - 2.8 °F 32% 30.48 in 10.0 mi Calm Calm - N/A   Clear
1:55 PM 31.3 °F - 3.9 °F 31% 30.46 in 10.0 mi Calm Calm - N/A   Scattered Clouds
2:55 PM 30.6 °F 27.1 °F 4.3 °F 33% 30.45 in 10.0 mi SE 3.5 mph - N/A   Scattered Clouds
3:55 PM 30.7 °F - 4.6 °F 33% 30.45 in 10.0 mi Calm Calm - N/A   Partly Cloudy
4:55 PM 29.7 °F - 4.1 °F 34% 30.44 in 10.0 mi Calm Calm - N/A   Overcast
5:55 PM 27.7 °F - 6.1 °F 40% 30.46 in 10.0 mi Calm Calm - N/A   Overcast
6:55 PM 27.5 °F - 9.1 °F 46% 30.46 in 10.0 mi Calm Calm - N/A   Overcast
7:55 PM 28.6 °F 24.8 °F 6.1 °F 39% 30.45 in 10.0 mi ENE 3.5 mph - N/A   Overcast
8:55 PM 29.1 °F 23.0 °F 6.6 °F 39% 30.45 in 10.0 mi ESE 5.8 mph - N/A   Overcast
9:55 PM 27.9 °F 24.0 °F 7.7 °F 43% 30.45 in 10.0 mi SSE 3.5 mph - N/A   Scattered Clouds
10:55 PM 26.6 °F 21.2 °F 8.4 °F 46% 30.45 in 10.0 mi SSE 4.6 mph - N/A   Partly Cloudy
11:55 PM 26.8 °F 20.2 °F 5.5 °F 40% 30.45 in 10.0 mi ESE 5.8 mph - N/A   Overcast